Damascus, Syria

10:14 PM EEST on June 23, 2017 (GMT +0300)
Damascus International

Weather History for OSDI - January, 2013

Change the Weather History Date:

Tuesday, January 22, 2013

  Actual Average Record
Temperature  
Mean Temperature 48 °F -  
Max Temperature 61 °F 58 °F 65 °F (2014)
Min Temperature 35 °F 34 °F 26 °F (2006)
Degree Days  
Heating Degree Days 17    
Moisture  
Dew Point 35 °F    
Average Humidity 65    
Maximum Humidity 93    
Minimum Humidity 31    
Precipitation  
Precipitation 0.00 in 0.03 in - ()
Sea Level Pressure  
Sea Level Pressure 30.08 in    
Wind  
Wind Speed 1 mph ()    
Max Wind Speed 7 mph    
Max Gust Speed -    
Visibility 7.4 miles    
Events      
Averages and records for this station are not official NWS values.
T = Trace of Precipitation, MM = Missing Value Source: Averaged Metar Reports

Daily Weather History Graph

Daily Weather History Graph

Search for Another Location

Airport or City:

Trip Planner

Search our weather history database for the weather conditions in past years. The results will help you decide how hot, cold, wet, or windy it might be!

Date:

Astronomy

Jan. 22, 2013 Rise Set
Actual Time 6:35 AM EET 4:55 PM EET
Civil Twilight 6:09 AM EET 5:22 PM EET
Nautical Twilight 5:38 AM EET 5:52 PM EET
Astronomical Twilight 5:09 AM EET 6:22 PM EET
Moon 1:04 PM EET (1/22) 2:37 AM EET (1/22)
Length of Visible Light 11h 13m
Length of Day
10h 20m
Waxing Gibbous, 80% of the Moon is Illuminated
Jan 22
Waxing Gibbous
Jan 27
Full
Feb 3
Last Quarter
Feb 10
New
Feb 17
First Quarter

Hourly Weather History & Observations

Time (EET) Temp. Dew Point Humidity Pressure Visibility Wind Dir Wind Speed Gust Speed Precip Events Conditions
12:00 AM 41.0 °F 35.6 °F 81% 30.15 in - Calm Calm - N/A   Clear
1:00 AM 39.2 °F 37.4 °F 93% 30.15 in - Calm Calm - N/A   Clear
2:00 AM 39 °F 34 °F 77% 30.14 in 9 mi Calm Calm - -  
2:00 AM 39.2 °F 33.8 °F 81% 30.15 in - Calm Calm - N/A   Clear
3:00 AM 37.4 °F 33.8 °F 87% 30.15 in - Calm Calm - N/A   Clear
4:00 AM 35.6 °F 32.0 °F 87% 30.12 in - Calm Calm - N/A   Clear
5:00 AM 35.6 °F 33.8 °F 93% 30.12 in - Calm Calm - N/A   Clear
6:00 AM 37.4 °F 32.0 °F 81% 30.12 in - Calm Calm - N/A   Clear
7:00 AM 35.6 °F 32.0 °F 87% 30.12 in - Calm Calm - N/A   Clear
8:00 AM 37 °F 33 °F 78% 30.15 in 9 mi Calm Calm - -   Scattered Clouds
8:00 AM 37.4 °F 32.0 °F 81% 30.12 in - Calm Calm - N/A   Clear
9:00 AM 44.6 °F 33.8 °F 66% 30.15 in - NNE 2.3 mph - N/A   Clear
10:00 AM 51.8 °F 32.0 °F 47% 30.12 in - ENE 6.9 mph - N/A   Clear
11:00 AM 53.6 °F 32.0 °F 44% 30.09 in 6.2 mi ESE 4.6 mph - N/A   Scattered Clouds
12:00 PM 55.4 °F 33.8 °F 44% 30.06 in 6.2 mi East 4.6 mph - N/A   Scattered Clouds
1:00 PM 59.0 °F 33.8 °F 39% 30.04 in 6.2 mi East 4.6 mph - N/A   Scattered Clouds
2:00 PM 60 °F 37 °F 31% 30.00 in 9 mi Calm Calm - -   Partly Cloudy
2:00 PM 59.0 °F 37.4 °F 45% 30.01 in 6.2 mi Calm Calm - N/A   Scattered Clouds
3:00 PM 60.8 °F 35.6 °F 39% 30.01 in 6.2 mi Calm Calm - N/A   Partly Cloudy
4:00 PM 60.8 °F 39.2 °F 45% 30.01 in - Calm Calm - N/A   Clear
5:00 PM 57.2 °F 37.4 °F 48% 30.01 in - Calm Calm - N/A   Clear
6:00 PM 53.6 °F 35.6 °F 51% 30.04 in - Calm Calm - N/A   Clear
7:00 PM 50.0 °F 39.2 °F 66% 30.01 in - Calm Calm - N/A   Clear
8:00 PM 48 °F 36 °F 52% 30.03 in 9 mi Calm Calm - -  
8:00 PM 48.2 °F 35.6 °F 62% 30.01 in - Calm Calm - N/A   Clear
9:00 PM 48.2 °F 35.6 °F 62% 30.01 in - Calm Calm - N/A   Clear
10:00 PM 42.8 °F 35.6 °F 76% 30.04 in - Calm Calm - N/A   Clear